Weather in Kalinin

Russia / Orenburg Oblast     51°50′57″N   52°42′56″E
temp.,
°C
wind,
m/s
gust,
m/s
humid.,
%
clouds,
%
prec.,
mm/h
press.,
hPa
HPBL,
m
7 march, sun
sun723:00−6nne3496100 0.4 1012134
02:00−6nne5895100 1.1 1010271
05:00−7nne5995100 1.8 1010329
08:00−10n5888100 0.2 1010200
11:00−11n488083 0.2 1012219
14:00−8nw34790 0.0 1014252
17:00−9w35860 0.0 1014197
20:00−13wsw34880 0.0 101547
8 march, mon
mon823:00−13sw479846 0.0 1015114
02:00−12ssw5129498 0.0 1013275
05:00−8ssw8168899 0.0 1011641
08:00−6ssw101890100 0.1 1008803
11:00−4sw111793100 0.5 1008945
14:00−3sw91494100 0.5 1008956
17:00−2sw81295100 1.1 1009894
20:00−2sw61297100 1.0 1009720
9 march, tue
tue923:00−2sw71396100 1.8 1009707
02:00−2sw81496100 0.9 1008637
05:00−1sw81396100 1.5 1007744
08:00−2sw71295100 0.3 1008552
11:00−2wnw5793100 1.3 1009526
14:00−3n2381100 0.1 1009301
17:00−4nne3493100 0.4 1008378
20:00−6nnw5895100 2.8 1007478
10 march, wed
wed1023:00−8nw5994100 3.5 1009285
02:00−12wnw4894100 0.1 1010148
05:00−15wnw449364 0.1 101158
08:00−17wnw349461 0.0 101252
11:00−15wnw469161 0.0 1014255
14:00−12wnw469081 0.0 1015400
17:00−12wnw578889 0.0 1016553
20:00−18wnw349587 0.0 101752
11 march, thu
thu1123:00−21nw349750 0.0 101938
02:00−23nw349632 0.0 102042
05:00−24nw349657 0.0 102278
08:00−27nw349568 0.0 102363
11:00−24nw359235 0.0 1026231
14:00−21wnw35890 0.0 1027287
17:00−20w35900 0.0 1027268
20:00−24w34930 0.0 102839